Flag for Germany Weather past 2 weeks in Detmold, North Rhine-Westphalia, Germany

Now
65 °F

Fog.


Feels Like: 65 °F
Forecast: 59 / 75 °F
Wind: 1 mph from South

Location: Bad Lippspringe

Current Time: Jul 29, 2014 at 9:19:01 AM

Latest Report: Jul 29, 2014 at 8:00 AM


Visibility: 2 mi

Pressure: 29.83 "Hg

Humidity: 96%

Dew point: 63 °F

Location of DetmoldLocation

Historic Weather in Detmold — Graph

°F

Detmold temperature yesterday

Maximum temperature yesterday: 83 °F (at 5:00 PM)
Minimum temperature yesterday: 58 °F (at 6:00 AM)
Average temperature yesterday: 70 °F

Past Weeks' High & Low Weather Summary

 TemperatureHumidityPressure
High90 °F (Jul 19, 4:00 PM)98% (Jul 26, 5:00 AM)30.19 "Hg (Jul 26, 5:00 AM)
Low54 °F (Jul 15, 6:00 AM)28% (Jul 19, 3:00 PM)29.78 "Hg (Jul 20, 6:00 PM)
Average70 °F72%29.98 "Hg
* Reported Jul 14 8:00 AM — Jul 29 8:00 AM, Detmold, Weather by CustomWeather, © 2014

Note: Actual official high and low records may vary slightly from our data, if they occured in-between our weather recording intervals... More about our weather records

Advertising

Detmold weather history for previous 24 hours

 ConditionsComfort  
Time TempWeatherWind HumidityBarometerVisibility
8:00 AM
Jul 29
65 °FFog.1 mph96%29.83 "Hg2 mi
7:00 AM62 °FFog.1 mph97%29.83 "Hg2 mi
6:00 AM62 °FFog.No wind98%29.83 "Hg2 mi
5:00 AM61 °FFog.1 mph97%29.84 "Hg2 mi
4:00 AM61 °FFog.1 mph97%29.83 "Hg1 mi
3:00 AM62 °FFog.1 mph96%29.85 "Hg2 mi
2:00 AM64 °FFog.1 mph95%29.86 "Hg2 mi
1:00 AM65 °FFog.1 mph93%29.87 "Hg3 mi
12:00 AM65 °FPassing clouds.1 mph90%29.88 "Hg5 mi
11:00 PM
Jul 28
67 °FFog.2 mph90%29.86 "Hg4 mi
10:00 PM70 °FOvercast.1 mph87%29.86 "Hg6 mi
9:00 PM71 °FPartly sunny.1 mph82%29.83 "Hg7 mi
8:00 PM73 °FScattered clouds.3 mph82%29.81 "Hg7 mi
7:00 PM73 °FOvercast.3 mph85%29.80 "Hg7 mi
6:00 PM83 °FPassing clouds.6 mph50%29.80 "Hg9 mi
5:00 PM83 °FOvercast.6 mph50%29.80 "Hg11 mi
4:00 PM82 °FScattered clouds.6 mph54%29.82 "Hg7 mi
3:00 PM81 °FPartly sunny.6 mph53%29.83 "Hg11 mi
2:00 PM80 °FSunny.3 mph54%29.85 "Hg7 mi
1:00 PM79 °FSunny.6 mph57%29.87 "Hg7 mi
12:00 PM77 °FPassing clouds.5 mph61%29.88 "Hg4 mi
11:00 AM75 °FOvercast.5 mph66%29.89 "Hg6 mi
10:00 AM74 °FSunny.5 mph72%29.90 "Hg6 mi
9:00 AM71 °FPassing clouds.3 mph79%29.91 "Hg4 mi
Weather by CustomWeather, © 2014

See weather overviewHow to use our weather pages